STARLINK-32344, 61719

Orbit data source: Space-Track

STARLINK-32344, 61719 is a payload satellite owned by SpaceX/Seattle (US) in LEO that was launched on Wed, 30 Oct 2024 UTC via an FALCON 9 launch vehicle from the Air Force Eastern Test Range (AFETR). Payload-class satellites include a variety of spacecraft equipped with specific instruments for various scientific and technological missions. These include communications satellites like Starlink; space stations such as the ISS; scientific satellites like the Hubble; Earth observation satellites from companies like Planet Labs, Umbra, and HawkEye 360; GPS; miniature CubeSats for education and research; and military/defense satellites.

Loading next visibility...
Identifier
61719, 2024-196N
Orbit
LEO
Last TLE update
1 day ago
Origin
Manufacturer
SpaceX/Seattle
Mission
Operational Commercial Communications
Bus & Motor
STARLINK V2M, Unknown motor
Mass
730 kg wet, ~700 kg dry
Launch date (UTC)
2024-10-30 (6 months ago)
Launch vehicle
FALCON 9
Launch site
Air Force Eastern Test Range (AFETR)
Object type
Payload
Rocket body
Debris
Shape & HBR
Box + 2 Pan, 29 m
Radar Cross Section
36.964 m², Large (>1 m²)

Expand to show TLE details & history

TLE from 1 day ago
0 STARLINK-32344
1 61719U 24196N   25118.73876421 -.00001336  00000-0 -32989-4 0  9991
2 61719  53.1597 124.4373 0001368  83.4562 276.6594 15.30186931 28934
Epoch: 2025-04-28T17:43Z
Definitive object data (Epoch: 2025-04-28T17:43:49.227Z)
Latitude
-0.00007°
Longitude
1.53366°
Altitude
476.045 km
Speed
7.629 km/s
True Right ascension
08h 17m 44s
True Declination
0° 00' 00"
Sunlit
Object was in daylight at TLE epoch
Visualization TLE readout
Latitude
38.82212°
Longitude
32.25596°
Altitude
477.846 km
Speed
7.632 km/s
Apparent Right ascension
14h 45m 54s
Apparent Declination
5° 44' 48"
Sunlit
Object is in daylight
Visualization observer readout
Local Sidereal Time
08:50:47
Azimuth
86.366° E
Elevation
4.62°
Doppler factor
1
Orbital elements
Apogee altitude
476.448 km
Perigee altitude
474.573 km
Semi-major axis
6,853.648 km
Eccentricity
0.0001368
Inclination
53.1597°
RAAN
124.4373°
Arg. of periapsis
83.4562°
True anomaly
276.64383°
Mean anomaly
276.6594°
Eccentric anomaly
276.65161°
Mean motion
3.82526 °/min
BSTAR
-0.000032989
Orbital period
94.11 mins
Loading maneuver chart data...
Loading SW <> Apogee altitude chart data...
Loading historical data...
Loading historical data...
Loading historical data...
Loading historical data...
Loading historical data...
Loading historical data...
Loading historical data...

STARLINK-32344 Visibility forecast

Observer location: undefined°, undefined°

Span
Click to sort rows by Start time (UTC) header in descending order
Start Az.
Max El. time (UTC)
Max El. Az.
Max El.
End time (UTC)
End Az.
7 mins2025-04-30 02:49:17.136Z227.999° WSW2025-04-30 02:52:17.136Z224.046° SW42.254°2025-04-30 02:56:17.136Z50.554° ENE
4 mins2025-04-30 07:47:17.136Z342.45° N2025-04-30 07:49:17.136Z17.67° NNE15.906°2025-04-30 07:51:17.136Z54.453° ENE
6 mins2025-04-30 09:25:17.136Z315.729° NNW2025-04-30 09:28:17.136Z91.714° ESE41.576°2025-04-30 09:31:17.136Z123.84° SE
|